Location: La Brionne
(46.1728°N, 1.7849°E)
Time: 08:21:19
(UTC+00:00)

BREEZE-M DEB (TANK) - Pass Details

Date: 16 June 2021
Orbit: 320 x 14772 km, 49.5° (Epoch: 02 August)

Event Time Altitude Azimuth Distance (km) Brightness Sun altitude
Rises 20:35:45 0° 221° (SW) 2,065 5.7 -7.3°
Reaches altitude 10° 20:37:26 10° 209° (SSW) 1,244 4.5 -7.5°
Maximum altitude 20:39:33 32° 140° (SE) 701 2.8 -7.7°
Drops below altitude 10° 20:43:02 10° 74° (ENE) 2,076 5.5 -8.1°
Sets 20:46:53 0° 66° (ENE) 3,979 7.0 -8.6°
